This is the latest recevied weather packets stored in our database for station/object KI2K. If no packets are shown the sender has not sent any weather packets the latest 10 day(s).
| Time | Temp. | Humidity | Pressure | Rain* | Wind** | Luminosity | Snow |
|---|---|---|---|---|---|---|---|
| 1777855061 | 15° C | 61% | 1010 hPa | 0 mm | - | 3 W/m² | - |
| 1777854758 | 15° C | 61% | 1010.3 hPa | 0 mm | - | 5 W/m² | - |
| 1777854455 | 15° C | 60% | 1010 hPa | 0 mm | - | 6 W/m² | - |
| 1777854152 | 15° C | 60% | 1010.2 hPa | 0 mm | - | 8 W/m² | - |
| 1777853850 | 15° C | 60% | 1010.2 hPa | 0 mm | - | 11 W/m² | - |
| 1777853546 | 15° C | 61% | 1010 hPa | 0 mm | - | 12 W/m² | - |
| 1777853243 | 15° C | 61% | 1010.4 hPa | 0 mm | - | 15 W/m² | - |
| 1777852940 | 15° C | 60% | 1010.4 hPa | 0 mm | - | 15 W/m² | - |
| 1777852639 | 15° C | 61% | 1010.3 hPa | 0 mm | - | 14 W/m² | - |
| 1777852335 | 15° C | 61% | 1010 hPa | 0 mm | - | 16 W/m² | - |
| 1777852033 | 15° C | 61% | 1010.2 hPa | 0 mm | - | 23 W/m² | - |
| 1777851731 | 15° C | 60% | 1010.4 hPa | 0 mm | - | 29 W/m² | - |
| 1777851428 | 15° C | 60% | 1010.2 hPa | 0 mm | - | 34 W/m² | - |
| 1777851123 | 15° C | 60% | 1010.4 hPa | 0 mm | - | 44 W/m² | - |
| 1777850820 | 15° C | 60% | 1010.3 hPa | 0 mm | - | 42 W/m² | - |
| 1777850517 | 15° C | 61% | 1010.4 hPa | 0 mm | - | 40 W/m² | - |
| 1777850216 | 15° C | 60% | 1010.5 hPa | 0 mm | - | 38 W/m² | - |
| 1777849911 | 15.56° C | 59% | 1010.7 hPa | 0 mm | - | 39 W/m² | - |
| 1777849608 | 15.56° C | 59% | 1010.4 hPa | 0 mm | - | 46 W/m² | - |
| 1777849306 | 15.56° C | 59% | 1010.7 hPa | 0 mm | - | 54 W/m² | - |
| 1777849003 | 15.56° C | 58% | 1010.6 hPa | 0 mm | - | 70 W/m² | - |
| 1777848703 | 15° C | 58% | 1010.8 hPa | 0 mm | - | 54 W/m² | - |
| 1777848400 | 15.56° C | 58% | 1010.8 hPa | 0 mm | - | 26 W/m² | - |
| 1777848098 | 15.56° C | 57% | 1010.5 hPa | 0 mm | - | 33 W/m² | - |
| 1777847796 | 15.56° C | 57% | 1010.4 hPa | 0 mm | - | 52 W/m² | - |
* Rain latest hour (hover to see other rain measurements)
** Current wind speed in m/s (hover to see current wind gust speed)